Change the Weather History Date:

Saturday, October 20, 2012

  Actual Average Record
Temperature  
Mean Temperature 65 °F -  
Max Temperature 83 °F 72 °F 96 °F (1979)
Min Temperature 47 °F 47 °F 27 °F (1976)
Growing Degree Days 15 (Base 50)    
Moisture  
Dew Point 49 °F    
Average Humidity 57    
Maximum Humidity 82    
Minimum Humidity 38    
Precipitation  
Precipitation 0.00 in - - ()
Sea Level Pressure  
Sea Level Pressure 29.73 in    
Wind  
Wind Speed 5 mph (SSE)    
Max Wind Speed 14 mph    
Max Gust Speed -    
Visibility 10 miles    
Events      
Averages and records for this station are not official NWS values.
T = Trace of Precipitation, MM = Missing Value Source: NWS Daily Summary

Daily Weather History Graph

Daily Weather History Graph

Search for Another Location

Airport or City:

Trip Planner

Search our weather history database for the weather conditions in past years. The results will help you decide how hot, cold, wet, or windy it might be!

Date:

Astronomy

Oct. 20, 2012 Rise Set
Actual Time 7:43 AM CDT 6:52 PM CDT
Civil Twilight 7:18 AM CDT 7:17 PM CDT
Nautical Twilight 6:48 AM CDT 7:47 PM CDT
Astronomical Twilight 6:19 AM CDT 8:16 PM CDT
Moon 1:13 PM CDT (10/20) 11:46 PM CDT (10/20)
Length of Visible Light 11h 59m
Length of Day
11h 08m
Waxing Crescent, 34% of the Moon is Illuminated
Oct 20
Waxing Crescent
Oct 21
First Quarter
Oct 29
Full
Nov 6
Last Quarter
Nov 13
New

Hourly Weather History & Observations

Time (CDT) Temp. Heat Index Dew Point Humidity Pressure Visibility Wind Dir Wind Speed Gust Speed Precip Events Conditions
12:55 AM 57.7 °F - 35.6 °F 44% 29.83 in 10.0 mi SSW 5.8 mph - N/A   Clear
1:55 AM 56.1 °F - 35.1 °F 45% 29.83 in 10.0 mi Calm Calm - N/A   Clear
2:55 AM 54.7 °F - 35.8 °F 49% 29.81 in 10.0 mi SSW 3.5 mph - N/A   Clear
3:55 AM 51.1 °F - 37.0 °F 59% 29.79 in 10.0 mi Calm Calm - N/A   Clear
4:55 AM 50.0 °F - 37.2 °F 62% 29.78 in 10.0 mi Calm Calm - N/A   Clear
5:55 AM 48.2 °F - 38.3 °F 69% 29.78 in 10.0 mi Calm Calm - N/A   Clear
6:55 AM 47.8 °F - 38.8 °F 71% 29.78 in 10.0 mi Calm Calm - N/A   Clear
7:55 AM 49.5 °F - 39.0 °F 67% 29.78 in 10.0 mi South 3.5 mph - N/A   Clear
8:55 AM 53.1 °F - 41.7 °F 65% 29.79 in 10.0 mi Calm Calm - N/A   Clear
9:55 AM 61.5 °F - 44.2 °F 53% 29.79 in 10.0 mi South 6.9 mph - N/A   Clear
10:55 AM 67.3 °F - 47.1 °F 48% 29.77 in 10.0 mi SSE 10.4 mph - N/A   Clear
11:55 AM 72.7 °F - 51.8 °F 48% 29.75 in 10.0 mi SSE 11.5 mph - N/A   Clear
12:55 PM 75.9 °F - 54.3 °F 47% 29.73 in 10.0 mi South 11.5 mph - N/A   Clear
1:55 PM 78.6 °F - 56.3 °F 46% 29.69 in 10.0 mi SSE 13.8 mph - N/A   Clear
2:55 PM 80.6 °F 80.4 °F 54.9 °F 41% 29.67 in 10.0 mi South 11.5 mph - N/A   Clear
3:55 PM 82.8 °F 81.9 °F 54.7 °F 38% 29.66 in 10.0 mi South 11.5 mph - N/A   Clear
4:55 PM 83.1 °F 82.6 °F 56.8 °F 41% 29.65 in 10.0 mi SSE 13.8 mph - N/A   Clear
5:55 PM 82.2 °F 82.3 °F 58.6 °F 45% 29.65 in 10.0 mi South 11.5 mph - N/A   Clear
6:55 PM 77.0 °F - 61.3 °F 58% 29.66 in 10.0 mi SE 8.1 mph - N/A   Clear
7:55 PM 71.8 °F - 60.8 °F 68% 29.67 in 10.0 mi SE 8.1 mph - N/A   Clear
8:55 PM 70.0 °F - 61.0 °F 73% 29.67 in 10.0 mi SE 8.1 mph - N/A   Clear
9:55 PM 69.6 °F - 61.3 °F 75% 29.66 in 10.0 mi SE 8.1 mph - N/A   Clear
10:55 PM 70.7 °F - 62.2 °F 75% 29.66 in 10.0 mi SSE 9.2 mph - N/A   Clear
11:55 PM 68.2 °F - 62.4 °F 82% 29.67 in 10.0 mi SSE 8.1 mph - N/A   Clear